GW6468 Weather Reports


Display with metric or nautical units.
time (UTC)temp
F
wind
direction
speed
MPH
gust
MPH
rain 1hr
in
rain 24hr
in
rain mn
in
humidity
%
barometer
mb
20260509223028 72 300 5.0 12.0 0.00 0.00 0.00 63 1010.0
20260509221511 72 322 5.0 11.0 0.00 0.00 0.00 63 1009.8
20260509220016 72 317 7.0 13.0 0.00 0.00 0.00 63 1009.7
20260509214519 73 293 4.0 12.0 0.00 0.00 0.00 62 1009.6
20260509213026 74 338 6.0 10.0 0.00 0.00 0.00 58 1009.5
20260509211528 74 319 8.0 16.0 0.00 0.00 0.00 58 1009.4
20260509210014 73 327 7.0 12.0 0.00 0.00 0.00 58 1009.4
20260509204516 75 309 6.0 13.0 0.00 0.00 0.00 57 1009.4
20260509203033 74 323 7.0 14.0 0.00 0.00 0.00 57 1009.2
20260509201526 74 345 8.0 13.0 0.00 0.00 0.00 58 1009.4
20260509200033 74 272 4.0 7.0 0.00 0.00 0.00 57 1009.8
20260509194511 75 347 7.0 14.0 0.00 0.00 0.00 55 1009.9
20260509193023 75 313 8.0 15.0 0.00 0.00 0.00 54 1009.9
20260509191524 73 278 4.0 12.0 0.00 0.00 0.00 59 1009.9
20260509190028 73 33 6.0 12.0 0.00 0.00 0.00 59 1010.2
20260509184529 72 356 9.0 15.0 0.00 0.00 0.00 60 1010.2
20260509183018 73 316 8.0 15.0 0.00 0.00 0.00 59 1010.4
20260509181520 71 314 8.0 13.0 0.00 0.00 0.00 62 1010.6
20260509180023 71 338 9.0 17.0 0.00 0.00 0.00 60 1010.8
20260509174542 70 340 10.0 16.0 0.00 0.00 0.00 62 1011.0
20260509173030 71 340 10.0 15.0 0.00 0.00 0.00 58 1011.0
20260509171516 71 304 7.0 17.0 0.00 0.00 0.00 63 1011.1
20260509170024 69 298 6.0 16.0 0.00 0.00 0.00 63 1011.3
20260509164525 69 278 10.0 15.0 0.00 0.00 0.00 63 1011.2
20260509163041 68 317 8.0 15.0 0.00 0.00 0.00 65 1011.8
20260509161540 68 320 6.0 12.0 0.00 0.00 0.00 66 1012.0
20260509160021 68 37 7.0 12.0 0.00 0.00 0.00 66 1012.1
20260509154524 67 321 5.0 11.0 0.00 0.00 0.00 67 1012.2
20260509153043 67 28 6.0 12.0 0.00 0.00 0.00 68 1012.2
20260509151530 66 319 6.0 13.0 0.00 0.00 0.00 68 1011.9
20260509150038 66 36 4.0 8.0 0.00 0.00 0.00 69 1012.1
20260509144520 66 309 5.0 10.0 0.00 0.00 0.00 69 1012.2
20260509143006 65 112 1.0 4.0 0.00 0.00 0.00 72 1012.1
20260509141510 63 247 1.0 5.0 0.00 0.00 0.00 75 1012.2
20260509140011 61 242 3.0 6.0 0.00 0.00 0.00 77 1012.0
20260509134517 60 279 1.0 5.0 0.00 0.00 0.00 78 1012.2
20260509133020 60 207 1.0 5.0 0.00 0.00 0.00 78 1012.3
20260509131503 60 249 1.0 3.0 0.00 0.00 0.00 78 1012.6
20260509130011 59 122 0.0 2.0 0.00 0.00 0.00 77 1013.0
20260509124515 57 146 0.0 1.0 0.00 0.00 0.00 79 1013.0
20260509123018 54 162 0.0 1.0 0.00 0.00 0.00 88 1013.2
20260509121525 52 160 0.0 1.0 0.00 0.00 0.00 92 1013.1
20260509120006 49 132 0.0 1.0 0.00 0.00 0.00 91 1012.9
20260509114512 50 156 0.0 0.0 0.00 0.00 0.00 93 1012.7
20260509113014 49 159 1.0 1.0 0.00 0.00 0.00 94 1012.3
20260509111522 47 143 0.0 2.0 0.00 0.00 0.00 94 1012.5
20260509110026 47 140 0.0 0.0 0.00 0.00 0.00 94 1012.6
20260509104526 46 139 0.0 1.0 0.00 0.00 0.00 94 1012.7
20260509103010 46 139 0.0 0.0 0.00 0.00 0.00 94 1012.2
20260509101514 46 139 0.0 0.0 0.00 0.00 0.00 94 1012.1
20260509100020 46 139 0.0 1.0 0.00 0.00 0.00 92 1012.0
20260509094526 47 150 0.0 0.0 0.00 0.00 0.00 93 1011.9
20260509093037 47 150 0.0 0.0 0.00 0.00 0.00 92 1011.9
20260509091512 48 150 0.0 0.0 0.00 0.00 0.00 91 1012.0
20260509090018 49 190 0.0 2.0 0.00 0.00 0.00 91 1012.0
20260509084525 49 145 0.0 0.0 0.00 0.00 0.00 91 1012.2
20260509083023 50 145 0.0 0.0 0.00 0.00 0.00 89 1012.3
20260509081528 51 145 0.0 0.0 0.00 0.00 0.00 87 1012.2
20260509080015 52 145 0.0 0.0 0.00 0.00 0.00 86 1012.0
20260509074516 52 145 0.0 0.0 0.00 0.00 0.00 87 1012.2
20260509073024 52 145 0.0 2.0 0.00 0.00 0.00 85 1012.4
20260509071528 51 195 0.0 1.0 0.00 0.00 0.00 90 1012.7
20260509070030 50 172 0.0 0.0 0.00 0.00 0.00 89 1013.0
20260509064516 51 172 0.0 0.0 0.00 0.00 0.00 88 1013.2
20260509063023 51 200 0.0 0.0 0.00 0.00 0.00 86 1013.2
20260509061528 53 207 0.0 1.0 0.00 0.00 0.00 85 1013.5
20260509060033 54 207 0.0 1.0 0.00 0.00 0.00 82 1013.7
20260509054531 53 150 0.0 0.0 0.00 0.00 0.00 82 1013.9
20260509053028 54 150 0.0 0.0 0.00 0.00 0.00 80 1014.1
20260509051520 54 150 0.0 0.0 0.00 0.00 0.00 80 1014.0
20260509050042 56 146 0.0 0.0 0.00 0.00 0.00 78 1014.4
20260509044526 54 190 0.0 0.0 0.00 0.00 0.00 81 1014.5
20260509043010 55 190 0.0 0.0 0.00 0.00 0.00 81 1014.4
20260509041515 56 190 0.0 0.0 0.00 0.00 0.00 77 1014.6
20260509040018 57 190 0.0 0.0 0.00 0.00 0.00 75 1014.6
20260509034504 58 190 0.0 0.0 0.00 0.00 0.00 73 1014.7
20260509033008 58 190 0.0 1.0 0.00 0.00 0.00 74 1014.7
20260509031525 58 186 0.0 0.0 0.00 0.00 0.00 73 1014.7
20260509030019 58 186 0.0 0.0 0.00 0.00 0.00 74 1014.6
20260509024532 58 186 0.0 0.0 0.00 0.00 0.00 72 1014.8
20260509023017 58 186 1.0 2.0 0.00 0.00 0.00 70 1014.8
20260509021516 59 205 0.0 1.0 0.00 0.00 0.00 68 1014.8
20260509020015 59 210 0.0 2.0 0.00 0.00 0.00 67 1014.7
20260509014519 60 262 0.0 2.0 0.00 0.00 0.00 66 1014.8
20260509013025 60 245 0.0 2.0 0.00 0.00 0.00 64 1014.6
20260509011510 61 252 1.0 2.0 0.00 0.00 0.00 62 1014.6
20260509010022 61 269 0.0 3.0 0.00 0.00 0.00 63 1014.3
20260509004516 61 274 1.0 3.0 0.00 0.00 0.00 62 1014.2
20260509003024 62 231 1.0 2.0 0.00 0.00 0.00 62 1014.1
20260509001523 63 236 0.0 1.0 0.00 0.00 0.00 58 1014.1
20260509000014 65 276 1.0 2.0 0.00 0.00 0.00 54 1014.1
20260508234515 65 259 1.0 2.0 0.00 0.00 0.00 53 1014.0
20260508233020 66 264 1.0 2.0 0.00 0.00 0.00 52 1013.9
20260508231524 67 306 3.0 7.0 0.00 0.00 0.00 47 1013.8
20260508230026 67 300 2.0 5.0 0.00 0.00 0.00 47 1014.1
20260508224511 68 346 5.0 7.0 0.00 0.00 0.00 44 1014.0